Location: W�rzburg
(49.7529°N, 9.8822°E)
Time: 18:31:05
(UTC+01:00)

ISS - Pass Details

Date: 17 November 2017
Orbit: 401 x 407 km, 51.6° (Epoch: 18 November)

Event Time Altitude Azimuth Distance (km) Brightness Sun altitude
Exits shadow 04:48:30 12° 140° (SE) 1,315 -0.8 -26.7°
Drops below altitude 10° 04:48:51 10° 138° (SE) 1,450 -0.6 -26.7°
Sets 04:50:58 0° 131° (SE) 2,306 0.7 -26.3°
